Flag for France Weather past 2 weeks in Biarritz, France

55 °F

Passing clouds.

Feels Like: 52 °F
Forecast: 48 / 58 °F
Wind: 14 mph from Northwest

Location: Biarritz Airport

Current Time: Nov 27, 2015 at 11:56:27 PM

Latest Report: Nov 27, 2015 at 11:00 PM

Visibility: N/A

Pressure: 30.09 "Hg

Humidity: 88%

Dew point: 52 °F

Location of BiarritzLocation

Historic Weather in Biarritz — Graph


Biarritz temperature yesterday

Maximum temperature yesterday: 57 °F (at 1:30 AM)
Minimum temperature yesterday: 50 °F (at 8:30 PM)
Average temperature yesterday: 56 °F

Past Weeks' High & Low Weather Summary

High73 °F (Nov 17, 3:30 PM)100% (Nov 13, 2:30 AM)30.57 "Hg (Nov 13, 2:30 AM)
Low32 °F (Nov 23, 5:00 AM)40% (Nov 20, 12:30 PM)29.83 "Hg (Nov 21, 2:30 AM)
Average54 °F83%30.24 "Hg
* Reported Nov 12 10:00 PM — Nov 27 10:30 PM, Biarritz, Weather by CustomWeather, © 2015

Note: Actual official high and low records may vary slightly from our data, if they occured in-between our weather recording intervals... More about our weather records


Biarritz weather history for previous 24 hours

Time TempWeatherWind HumidityBarometerVisibility
10:30 PM
Fri, Nov 27
57 °FMostly cloudy.9 mph82%30.09 "HgN/A
10:00 PM55 °FPartly cloudy.12 mph94%30.09 "HgN/A
9:30 PM52 °FLight rain. Fog.6 mph94%30.09 "Hg3 mi
9:00 PM52 °FMostly cloudy.5 mph94%30.09 "Hg5 mi
8:30 PM52 °FLight rain. Fog.3 mph94%30.09 "Hg2 mi
8:00 PM52 °FLight rain. Fog.3 mph94%30.09 "Hg2 mi
7:30 PM52 °FDrizzle. Fog.2 mph94%30.09 "Hg3 mi
7:00 PM52 °FMostly cloudy.3 mph94%30.09 "HgN/A
6:30 PM52 °FMostly cloudy.2 mph94%30.09 "HgN/A
6:00 PM52 °FMostly cloudy.2 mph94%30.09 "HgN/A
5:30 PM52 °FMostly cloudy.2 mph94%30.09 "HgN/A
5:00 PM52 °FBroken clouds.3 mph94%30.09 "HgN/A
4:30 PM52 °FBroken clouds.3 mph94%30.09 "HgN/A
4:00 PM52 °FPartly sunny.5 mph88%30.09 "HgN/A
3:30 PM52 °FPartly sunny.3 mph88%30.09 "HgN/A
3:00 PM50 °FMostly cloudy.3 mph94%30.09 "HgN/A
2:30 PM50 °FLight rain. Mostly cloudy.3 mph94%30.09 "Hg4 mi
2:00 PM52 °FDrizzle. Overcast.3 mph88%30.12 "Hg6 mi
1:30 PM52 °FMostly cloudy.6 mph88%30.12 "HgN/A
1:00 PM52 °FMostly cloudy.2 mph82%30.12 "HgN/A
12:30 PM52 °FOvercast.No wind77%30.15 "HgN/A
12:00 PM52 °FMore clouds than sun.2 mph77%30.15 "HgN/A
11:30 AM50 °FMore clouds than sun.2 mph82%30.15 "HgN/A
11:00 AM50 °FCloudy.2 mph88%30.15 "HgN/A
10:30 AM48 °FMostly cloudy.3 mph94%30.15 "HgN/A
10:00 AM48 °FMore clouds than sun.2 mph94%30.15 "HgN/A
9:30 AM48 °FOvercast.3 mph94%30.15 "HgN/A
9:00 AM48 °FOvercast.2 mph94%30.15 "HgN/A
7:30 AM48 °FOvercast.No wind94%30.12 "HgN/A
7:00 AM48 °FOvercast.3 mph94%30.12 "HgN/A
6:30 AM48 °FOvercast.2 mph94%30.12 "HgN/A
6:00 AM48 °FOvercast.6 mph94%30.12 "HgN/A
5:00 AM48 °FOvercast.2 mph94%30.12 "HgN/A
4:30 AM48 °FOvercast.6 mph94%30.12 "HgN/A
4:00 AM48 °FMostly cloudy.3 mph94%30.15 "HgN/A
3:30 AM48 °FMostly cloudy.5 mph94%30.15 "HgN/A
3:00 AM48 °FMostly cloudy.3 mph94%30.15 "HgN/A
2:30 AM48 °FOvercast.1 mph94%30.15 "HgN/A
2:00 AM48 °FMostly cloudy.2 mph94%30.15 "HgN/A
1:30 AM48 °FPassing clouds.2 mph94%30.15 "HgN/A
1:00 AM48 °FOvercast.5 mph94%30.18 "HgN/A
12:30 AM50 °FMostly cloudy.3 mph94%30.18 "HgN/A
11:30 PM
Thu, Nov 26
50 °FPassing clouds.5 mph94%30.18 "HgN/A
11:00 PM50 °FFog.7 mph94%30.21 "Hg3 mi
Weather by CustomWeather, © 2015

See weather overviewHow to use our weather pages